This is the latest recevied weather packets stored in our database for station/object N5GC-2. If no packets are shown the sender has not sent any weather packets the latest 10 day(s).
| Time | Temp. | Humidity | Pressure | Rain* | Wind** | Luminosity | Snow |
|---|---|---|---|---|---|---|---|
| 1778200297 | 21.11° C | 45% | - | 0 mm | - | - | - |
| 1778199993 | 21.11° C | 41% | - | 0 mm | - | - | - |
| 1778199691 | 21.67° C | 41% | - | 0 mm | - | - | - |
| 1778199386 | 22.22° C | 40% | - | 0 mm | - | - | - |
| 1778199082 | 22.22° C | 38% | - | 0 mm | - | - | - |
| 1778198778 | 22.78° C | 39% | - | 0 mm | - | - | - |
| 1778198476 | 22.78° C | 37% | - | 0 mm | - | - | - |
| 1778198173 | 22.78° C | 37% | - | 0 mm | - | - | - |
| 1778197870 | 23.33° C | 35% | - | 0 mm | - | - | - |
| 1778197566 | 23.33° C | 34% | - | 0 mm | - | - | - |
| 1778197263 | 23.89° C | 37% | - | 0 mm | - | - | - |
| 1778196960 | 24.44° C | 34% | - | 0 mm | - | - | - |
| 1778196659 | 25° C | 34% | - | 0 mm | - | - | - |
| 1778196354 | 25° C | 33% | - | 0 mm | - | - | - |
| 1778196052 | 25.56° C | 32% | - | 0 mm | - | - | - |
| 1778195748 | 25.56° C | 31% | - | 0 mm | - | - | - |
| 1778195446 | 25.56° C | 32% | - | 0 mm | - | - | - |
| 1778195142 | 25.56° C | 29% | - | 0 mm | - | - | - |
| 1778194839 | 25.56° C | 28% | - | 0 mm | - | - | - |
| 1778194533 | 25.56° C | 30% | - | 0 mm | - | - | - |
| 1778194230 | 25.56° C | 31% | - | 0 mm | - | - | - |
| 1778193926 | 25° C | 28% | - | 0 mm | - | - | - |
| 1778193623 | 25° C | 28% | - | 0 mm | - | - | - |
| 1778193319 | 25° C | 32% | - | 0 mm | - | - | - |
| 1778193016 | 25° C | 29% | - | 0 mm | - | - | - |
* Rain latest hour (hover to see other rain measurements)
** Current wind speed in m/s (hover to see current wind gust speed)